User: anonymous
Location: Unspecified
(0.0000°N, 0.0000°E)
Time: 15:43:15
(UTC+02:00)
Language:

Cosmos 1092 Rocket - Orbit

View from above orbital plane
View from above orbital plane
View from above satellite
View from above satellite

Ground track
Ground track

The orbit data is extracted from the following two-line orbital elements,

1 11327U 79030B   14106.01621182  .00000087  00000-0  72232-4 0  7416
2 11327 082.9493 075.7977 0027926 179.0088 245.2152 13.76928785759752
Epoch (UTC): 16 April 2014 00:23:20
Eccentricity: 0.0027926
inclination: 82.9493°
perigee height: 954 km
apogee height: 995 km
right ascension of ascending node: 75.7977°
argument of perigee: 179.0088°
revolutions per day: 13.76928785
mean anomaly at epoch: 245.2152°
orbit number at epoch: 75975

The dashed part of the orbit path shows where the satellite is in the earth's shadow,  

DLR